Location: Praha
(50.0833°N, 14.4667°E)
Time: 20:40:53
(UTC+01:00)

ISS - Visible Passes

Search period start: 26 January 2021 00:00
Search period end: 05 February 2021 00:00
Orbit: 418 x 421 km, 51.6° (Epoch: 27 January)

Date Brightness Start Highest point End Pass type
(mag) Time Alt. Az. Time Alt. Az. Time Alt. Az.
26 Jan -3.7 18:48:13 10° W 18:51:36 65° N 18:51:38 65° N visible
27 Jan -3.7 18:00:51 10° W 18:04:14 70° N 18:06:15 22° ENE visible
27 Jan -1.3 19:37:49 10° WNW 19:39:13 23° WNW 19:39:13 23° WNW visible
28 Jan -3.7 18:50:27 10° WNW 18:53:50 69° N 18:53:50 69° N visible
29 Jan -3.6 18:03:04 10° W 18:06:26 65° N 18:08:28 22° E visible
29 Jan -1.4 19:39:58 10° WNW 19:41:27 24° W 19:41:27 24° W visible
30 Jan -3.9 18:52:35 10° WNW 18:55:59 86° SSW 18:56:07 81° SE visible
31 Jan -3.8 18:05:12 10° WNW 18:08:36 79° NNE 18:10:50 20° E visible
31 Jan -1.3 19:42:09 10° W 19:43:49 23° W 19:43:49 23° W visible
01 Feb -3.1 18:54:41 10° WNW 18:57:58 49° SSW 18:58:36 42° S visible
02 Feb -3.5 18:07:15 10° WNW 18:10:37 67° SSW 18:13:29 13° ESE visible
02 Feb -1.0 19:44:44 10° W 19:46:29 16° SW 19:46:29 16° SW visible
03 Feb -1.7 18:56:57 10° W 18:59:45 24° SW 19:01:30 16° S visible
04 Feb -2.2 18:09:22 10° W 18:12:28 34° SSW 18:15:34 10° SE visible
